Date_and_time,latitude,longitude,wind_speed,RelWindDirFrom,WindDirFrom,air_pressure,air_temperature,relative_humidity,Temp,platform_speed_wrt_ground,air_pressure_at_mean_sea_level,platform_orientation
2018-11-21 00:00,50.6304383333333,-96.9807866666667,10.5,14.1,336,994.54,-11.2,68,1.02,0.0,1023.77,270.0
2018-11-21 00:00,50.6304383333333,-96.9807866666667,10.0,10.1,329,994.47,-11.3,69,1.02,0.0,1023.70,270.0
2018-11-21 00:10,50.6304333333333,-96.9807866666667,9.8,13.3,342,994.64,-11.2,70,1.02,0.0,1023.87,270.0
2018-11-21 00:20,50.6304316666667,-96.9807916666667,11.4,17.8,347,994.79,-11.2,70,1.02,0.0,1024.02,270.0
2018-11-21 00:30,50.630435,-96.9807883333333,14.7,19.4,355,994.83,-11.2,70,1.02,0.0,1024.08,270.0
2018-11-21 00:40,50.630435,-96.980785,11.4,16.5,341,995.01,-11.4,68,1.02,0.0,1024.28,270.0
2018-11-21 00:50,50.6304383333333,-96.9807866666667,9.1,14.1,337,995.18,-11.6,67,1.02,0.0,1024.46,270.0
2018-11-21 01:00,50.6304383333333,-96.9807833333333,8.0,12.7,331,995.39,-11.8,67,1.02,0.0,1024.69,270.0
2018-11-21 01:10,50.6304416666667,-96.9807716666667,8.9,13.5,333,995.54,-11.8,67,1.02,0.0,1024.85,270.0
2018-11-21 01:20,50.6304366666667,-96.98077,8.5,12.8,333,995.74,-11.9,67,1.02,0.0,1025.06,270.0
2018-11-21 01:30,50.630435,-96.980775,8.9,13.2,329,995.91,-11.9,67,1.02,0.0,1025.25,270.0
2018-11-21 01:40,50.6304333333333,-96.9807716666667,7.8,11.8,334,996.04,-11.9,68,1.02,0.0,1025.40,270.0
2018-11-21 01:50,50.6304283333333,-96.98077,8.1,11.4,326,996.07,-12.0,68,1.02,0.0,1025.43,270.0
2018-11-21 02:00,50.63043,-96.980775,7.2,10.9,330,996.18,-12.0,68,1.02,0.0,1025.54,148.9
2018-11-21 02:10,50.63043,-96.9807816666667,6.5,9.4,327,996.35,-12.0,69,1.02,0.0,1025.71,148.9
2018-11-21 02:20,50.6304333333333,-96.98078,6.6,10.1,333,996.44,-12.0,69,1.02,0.0,1025.80,148.9
2018-11-21 02:30,50.630435,-96.980785,6.8,12.1,330,996.42,-12.0,68,1.02,0.0,1025.80,148.9
2018-11-21 02:40,50.6304333333333,-96.9807816666667,6.4,9.4,327,996.56,-12.0,69,1.02,0.0,1025.96,148.9
2018-11-21 02:50,50.6304316666667,-96.9807816666667,6.5,9.1,329,996.69,-12.0,69,1.02,0.0,1026.10,148.9
2018-11-21 03:00,50.6304333333333,-96.98078,5.3,8.2,323,996.85,-12.0,69,1.02,0.0,1026.26,165.5
2018-11-21 03:10,50.6304333333333,-96.98078,6.4,9.1,326,996.96,-12.0,69,1.03,0.0,1026.38,165.5
2018-11-21 03:20,50.630435,-96.98078,5.2,8.3,323,997.04,-12.0,70,1.03,0.0,1026.47,165.5
2018-11-21 03:30,50.630435,-96.9807816666667,5.5,7.8,316,997.10,-12.1,70,1.03,0.0,1026.54,165.5
2018-11-21 03:40,50.6304366666667,-96.98078,4.9,6.9,313,997.24,-12.1,72,1.04,0.0,1026.68,165.5
2018-11-21 03:50,50.6304366666667,-96.9807783333333,5.4,8.8,323,997.38,-12.0,72,1.04,0.0,1026.82,165.5
2018-11-21 04:00,50.6304366666667,-96.9807783333333,5.8,8.4,319,997.51,-12.1,73,1.06,0.0,1026.96,360.0
2018-11-21 04:10,50.6304366666667,-96.9807783333333,5.9,14.5,359,997.73,-11.9,74,1.08,0.0,1027.17,360.0
2018-11-21 04:20,50.6304366666667,-96.9807766666667,13.8,16.2,46,997.79,-11.5,72,1.09,0.0,1027.21,360.0
2018-11-21 04:30,50.6304366666667,-96.9807766666667,13.6,16.6,46,997.93,-11.7,70,1.09,0.0,1027.38,360.0
2018-11-21 04:40,50.6304416666667,-96.9807866666667,14.1,16.6,52,998.05,-11.8,71,1.10,0.0,1027.50,360.0
2018-11-21 04:50,50.63044,-96.9807683333333,14.1,16.4,49,998.25,-12.1,69,1.11,0.0,1027.72,360.0
2018-11-21 05:00,50.6304366666667,-96.9807633333333,14.7,16.5,49,998.37,-12.3,68,1.11,0.0,1027.85,14.5
2018-11-21 05:10,50.6304366666667,-96.9807666666667,14.7,17.1,50,998.45,-12.5,68,1.10,0.0,1027.96,14.5
2018-11-21 05:20,50.630435,-96.9807683333333,15.0,16.9,50,998.48,-12.6,68,1.10,0.0,1027.99,14.5
2018-11-21 05:30,50.6304366666667,-96.9807733333333,14.6,16.8,52,998.52,-12.8,68,1.10,0.0,1028.05,14.5
2018-11-21 05:40,50.630435,-96.9807716666667,13.2,15.3,54,998.66,-12.9,69,1.10,0.0,1028.19,14.5
2018-11-21 05:50,50.6304416666667,-96.98077,13.8,15.7,55,998.69,-13.0,69,1.10,0.0,1028.23,14.5
2018-11-21 06:00,50.630445,-96.9808066666667,13.6,15.2,55,998.76,-13.2,68,1.10,0.0,1028.31,304.8
2018-11-21 06:10,50.6304333333333,-96.98078,13.2,15.5,58,998.82,-13.3,69,1.10,0.0,1028.35,304.8
2018-11-21 06:20,50.63045,-96.980785,12.0,14.2,54,999.02,-13.5,69,1.10,0.0,1028.58,304.8
2018-11-21 06:30,50.6304333333333,-96.9807616666667,11.4,13.4,54,999.18,-13.5,70,1.09,0.0,1028.75,304.8
2018-11-21 06:40,50.6304316666667,-96.9807633333333,12.1,14.4,52,999.16,-13.7,70,1.09,0.0,1028.76,304.8
2018-11-21 06:50,50.630425,-96.9807683333333,11.5,13.5,50,999.29,-13.8,70,1.09,0.0,1028.91,304.8
2018-11-21 07:00,50.6304266666667,-96.9807733333333,11.8,14.2,52,999.40,-13.8,70,1.09,0.0,1029.04,143.4
2018-11-21 07:10,50.6304316666667,-96.9807716666667,12.0,14.4,51,999.45,-13.9,71,1.09,0.0,1029.10,143.4
2018-11-21 07:20,50.6304333333333,-96.9807716666667,10.9,12.9,50,999.65,-14.0,72,1.09,0.0,1029.32,143.4
2018-11-21 07:30,50.630435,-96.98077,11.3,13.6,53,999.58,-14.0,73,1.09,0.0,1029.26,143.4
2018-11-21 07:40,50.630435,-96.98077,11.5,13.6,54,999.57,-14.1,74,1.09,0.0,1029.26,143.4
2018-11-21 07:50,50.630435,-96.9807683333333,10.9,12.8,55,999.73,-14.2,74,1.09,0.0,1029.44,143.4
2018-11-21 08:00,50.6304366666667,-96.9807683333333,9.7,12.1,59,999.96,-14.2,75,1.10,0.0,1029.68,0.0
2018-11-21 08:10,50.6304516666667,-96.9807883333333,9.7,11.3,60,1000.13,-14.2,74,1.10,0.0,1029.87,0.0
2018-11-21 08:20,50.630445,-96.9807866666667,10.3,12.2,59,1000.09,-14.4,75,1.11,0.0,1029.84,0.0
2018-11-21 08:30,50.6304433333333,-96.9807866666667,10.7,12.5,63,999.91,-14.4,75,1.13,0.0,1029.66,0.0
2018-11-21 08:40,50.6304416666667,-96.98079,10.9,13.1,66,999.94,-14.4,75,1.14,0.0,1029.70,0.0
2018-11-21 08:50,50.630435,-96.9807633333333,10.6,12.1,64,1000.30,-14.4,75,1.15,0.0,1030.08,0.0
2018-11-21 09:00,50.6304316666667,-96.98075,11.0,12.6,64,1000.36,-14.5,76,1.15,0.0,1030.14,106.8
2018-11-21 09:10,50.630435,-96.9807566666667,10.3,12.0,65,1000.37,-14.6,77,1.16,0.0,1030.16,106.8
2018-11-21 09:20,50.630435,-96.9807583333333,9.5,11.2,67,1000.45,-14.5,77,1.17,0.0,1030.24,106.8
2018-11-21 09:30,50.6304483333333,-96.980785,10.2,12.3,73,1000.42,-14.4,75,1.17,0.0,1030.22,106.8
2018-11-21 09:40,50.63044,-96.9807666666667,10.8,12.3,71,1000.43,-14.5,74,1.17,0.0,1030.23,106.8
2018-11-21 09:50,50.6304383333333,-96.9807683333333,10.5,12.5,75,1000.51,-14.5,75,1.17,0.0,1030.32,106.8
2018-11-21 10:00,50.63045,-96.980775,10.7,12.0,73,1000.47,-14.5,76,1.17,0.0,1030.27,360.0
2018-11-21 10:10,50.6304383333333,-96.9807766666667,10.7,12.5,77,1000.42,-14.5,76,1.17,0.0,1030.24,360.0
2018-11-21 10:20,50.63045,-96.9807983333333,11.0,12.7,76,1000.40,-14.5,75,1.17,0.0,1030.22,360.0
2018-11-21 10:30,50.6304266666667,-96.9807766666667,10.6,13.1,81,1000.36,-14.6,75,1.17,0.0,1030.18,360.0
2018-11-21 10:40,50.6304333333333,-96.9807716666667,9.9,12.2,82,1000.28,-14.5,75,1.17,0.0,1030.09,360.0
2018-11-21 10:50,50.6304333333333,-96.9807716666667,10.0,12.1,82,1000.32,-14.5,75,1.17,0.0,1030.14,360.0
2018-11-21 11:00,50.6304333333333,-96.9807716666667,9.3,12.2,83,1000.41,-14.6,75,1.17,0.0,1030.23,228.3
2018-11-21 11:10,50.6304333333333,-96.9807733333333,8.5,11.2,83,1000.54,-14.4,76,1.16,0.0,1030.36,228.3
2018-11-21 11:20,50.6304416666667,-96.98078,8.7,11.2,87,1000.61,-14.3,75,1.16,0.0,1030.43,228.3
2018-11-21 11:30,50.6304383333333,-96.980785,9.0,11.5,89,1000.58,-14.4,76,1.16,0.0,1030.40,228.3
2018-11-21 11:40,50.6304366666667,-96.9807866666667,9.0,11.4,93,1000.69,-14.4,76,1.15,0.0,1030.51,228.3
2018-11-21 11:50,50.630435,-96.9807883333333,9.6,11.7,94,1000.61,-14.4,76,1.15,0.0,1030.43,228.3
2018-11-21 12:00,50.6304366666667,-96.9807883333333,8.8,10.7,93,1000.63,-14.3,76,1.14,0.0,1030.45,281.6
2018-11-21 12:10,50.6304366666667,-96.9807866666667,10.0,12.9,98,1000.64,-14.2,76,1.13,0.0,1030.45,281.6
2018-11-21 12:20,50.6304366666667,-96.9807866666667,10.9,12.8,102,1000.60,-14.3,75,1.13,0.0,1030.42,281.6
2018-11-21 12:30,50.6304366666667,-96.9807866666667,10.4,12.3,101,1000.56,-14.3,76,1.13,0.0,1030.37,281.6
2018-11-21 12:40,50.6304366666667,-96.980785,9.4,11.9,102,1000.81,-14.3,77,1.12,0.0,1030.63,281.6
2018-11-21 12:50,50.6304366666667,-96.9807833333333,10.1,11.8,109,1000.86,-14.3,76,1.12,0.0,1030.68,281.6
2018-11-21 13:00,50.63045,-96.9807733333333,10.2,12.6,107,1000.91,-14.3,76,1.11,0.0,1030.73,0.0
2018-11-21 13:10,50.6304416666667,-96.9807916666667,10.3,12.4,112,1000.95,-14.2,77,1.10,0.0,1030.76,0.0
2018-11-21 13:20,50.630435,-96.9807733333333,10.0,12.0,116,1001.09,-14.1,77,1.09,0.0,1030.90,0.0
2018-11-21 13:30,50.6304133333333,-96.98077,9.6,11.8,124,1001.11,-14.2,77,1.09,0.0,1030.92,0.0
2018-11-21 13:40,50.6304166666667,-96.9807716666667,10.0,13.1,131,1001.28,-14.3,78,1.09,0.0,1031.11,0.0
2018-11-21 13:50,50.63041,-96.980795,10.4,13.5,131,1001.20,-14.2,77,1.09,0.0,1031.02,0.0
2018-11-21 14:00,50.6304133333333,-96.9807916666667,10.1,13.1,129,1001.35,-14.1,77,1.09,0.0,1031.16,221.2
2018-11-21 14:10,50.63042,-96.98079,9.9,12.8,134,1001.54,-14.2,77,1.09,0.0,1031.36,221.2
2018-11-21 14:20,50.6304233333333,-96.9807866666667,9.9,13.4,132,1001.60,-14.0,77,1.09,0.0,1031.42,221.2
2018-11-21 14:30,50.6304433333333,-96.9808033333333,10.7,13.4,135,1001.70,-14.1,76,1.09,0.0,1031.52,221.2
2018-11-21 14:40,50.63043,-96.9807966666667,11.0,13.6,131,1001.89,-14.0,75,1.09,0.0,1031.71,221.2
2018-11-21 14:50,50.6304316666667,-96.9807883333333,10.3,13.3,133,1002.10,-14.0,76,1.10,0.0,1031.93,221.2
2018-11-21 15:00,50.6304316666667,-96.980785,10.9,13.1,131,1002.13,-13.8,75,1.11,0.0,1031.94,131.7
2018-11-21 15:10,50.6304333333333,-96.9807816666667,11.6,14.1,134,1001.94,-13.9,75,1.11,0.0,1031.75,131.7
2018-11-21 15:20,50.6304316666667,-96.9807816666667,11.6,15.5,127,1001.93,-13.6,77,1.11,0.0,1031.73,131.7
2018-11-21 15:30,50.6304316666667,-96.98078,12.2,14.3,123,1001.80,-13.5,77,1.10,0.0,1031.59,131.7
2018-11-21 15:40,50.6304333333333,-96.9807716666667,12.3,14.3,122,1001.76,-13.5,77,1.09,0.0,1031.54,131.7
2018-11-21 15:50,50.6304416666667,-96.980775,12.1,15.8,124,1001.69,-13.4,78,1.08,0.0,1031.46,131.7
2018-11-21 16:00,50.630445,-96.9807733333333,12.8,16.0,121,1001.63,-13.2,78,1.08,0.0,1031.39,360.0
2018-11-21 16:10,50.6304466666667,-96.9807716666667,13.0,15.8,124,1001.42,-13.3,78,1.08,0.0,1031.17,360.0
2018-11-21 16:20,50.630445,-96.9807716666667,13.4,15.6,123,1001.53,-13.2,77,1.08,0.0,1031.28,360.0
2018-11-21 16:30,50.630435,-96.98077,13.1,16.0,124,1001.53,-13.2,77,1.08,0.0,1031.28,360.0
2018-11-21 16:40,50.6304333333333,-96.9807683333333,13.6,16.9,124,1001.57,-13.1,77,1.07,0.0,1031.31,360.0
2018-11-21 16:50,50.6304333333333,-96.9807666666667,13.0,16.1,127,1001.48,-13.2,76,1.07,0.0,1031.22,360.0
2018-11-21 17:00,50.630435,-96.9807733333333,12.8,15.8,128,1001.38,-13.0,76,1.07,0.0,1031.12,37.7
2018-11-21 17:10,50.6304333333333,-96.9807683333333,11.9,15.2,127,1001.38,-12.8,75,1.06,0.0,1031.08,37.7
2018-11-21 17:20,50.6304266666667,-96.98077,12.3,15.7,124,1001.42,-12.8,75,1.06,0.0,1031.12,37.7
2018-11-21 17:30,50.6304316666667,-96.980775,13.3,16.0,123,1001.16,-12.6,75,1.06,0.0,1030.84,37.7
2018-11-21 17:40,50.6304316666667,-96.9807716666667,12.4,15.5,127,1001.03,-12.7,74,1.05,0.0,1030.70,37.7
2018-11-21 17:50,50.6304333333333,-96.9807716666667,13.3,16.4,125,1000.81,-12.6,74,1.05,0.0,1030.46,37.7
2018-11-21 18:00,50.6304333333333,-96.9807716666667,13.3,15.7,122,1000.76,-12.5,73,1.05,0.0,1030.40,90.0
2018-11-21 18:10,50.630435,-96.9807716666667,13.3,16.5,122,1000.73,-12.4,72,1.05,0.0,1030.36,90.0
2018-11-21 18:20,50.630435,-96.9807716666667,13.3,16.4,121,1000.62,-12.4,72,1.05,0.0,1030.25,90.0
2018-11-21 18:30,50.6304366666667,-96.9807716666667,14.1,16.7,122,1000.56,-12.3,71,1.05,0.0,1030.17,90.0
2018-11-21 18:40,50.6304533333333,-96.98076,14.2,16.9,120,1000.38,-12.2,71,1.05,0.0,1029.99,90.0
2018-11-21 18:50,50.630445,-96.9807716666667,14.3,17.5,122,1000.30,-12.1,71,1.05,0.0,1029.89,90.0
2018-11-21 19:00,50.6304433333333,-96.98077,13.1,16.5,123,1000.34,-12.1,73,1.05,0.0,1029.92,90.0
2018-11-21 19:10,50.6304433333333,-96.98077,13.3,17.1,122,1000.27,-12.0,73,1.05,0.0,1029.84,90.0
2018-11-21 19:20,50.6304416666667,-96.9807666666667,13.3,16.2,126,1000.22,-12.0,72,1.06,0.0,1029.79,90.0
2018-11-21 19:30,50.6304383333333,-96.980765,13.2,16.7,128,1000.27,-12.1,72,1.06,0.0,1029.84,90.0
2018-11-21 19:40,50.63044,-96.9807633333333,13.0,16.5,128,1000.16,-12.0,72,1.06,0.0,1029.72,90.0
2018-11-21 19:50,50.6304383333333,-96.980765,13.8,17.3,125,1000.09,-11.8,70,1.06,0.0,1029.63,90.0
2018-11-21 20:00,50.6304366666667,-96.9807666666667,13.1,16.0,128,1000.12,-11.9,70,1.07,0.0,1029.66,90.0
2018-11-21 20:10,50.6304383333333,-96.9807683333333,13.6,16.7,126,1000.05,-11.7,70,1.07,0.0,1029.58,90.0
2018-11-21 20:20,50.6304483333333,-96.9807516666667,14.1,17.4,126,999.90,-11.7,70,1.07,0.0,1029.42,90.0
2018-11-21 20:30,50.630455,-96.980755,14.1,17.8,124,999.72,-11.6,71,1.07,0.0,1029.22,90.0
2018-11-21 20:40,50.630455,-96.9807566666667,14.8,18.1,123,999.56,-11.4,71,1.08,0.0,1029.04,90.0
2018-11-21 20:50,50.6304533333333,-96.9807583333333,14.9,18.8,127,999.40,-11.5,71,1.08,0.0,1028.88,90.0
2018-11-21 21:00,50.63042,-96.9807733333333,14.4,19.5,128,999.42,-11.4,69,1.08,0.0,1028.89,360.0
2018-11-21 21:10,50.6304316666667,-96.980785,14.0,17.6,128,999.45,-11.3,69,1.09,0.0,1028.91,360.0
2018-11-21 21:20,50.6304466666667,-96.980775,12.7,16.8,129,999.48,-11.2,69,1.09,0.0,1028.94,360.0
2018-11-21 21:30,50.630445,-96.98077,13.9,17.4,125,999.49,-11.0,68,1.09,0.0,1028.94,360.0
2018-11-21 21:40,50.6304433333333,-96.98077,15.1,17.3,123,999.36,-10.9,69,1.09,0.0,1028.79,360.0
2018-11-21 21:50,50.6304433333333,-96.98077,14.7,19.0,120,999.19,-10.8,70,1.10,0.0,1028.61,360.0
2018-11-21 22:00,50.630445,-96.9807716666667,15.4,17.6,120,999.12,-10.7,69,1.10,0.0,1028.53,270.0
2018-11-21 22:10,50.6304466666667,-96.9807716666667,15.7,18.3,122,998.87,-10.7,69,1.10,0.0,1028.26,270.0
2018-11-21 22:20,50.6304483333333,-96.9807733333333,15.6,19.0,121,998.70,-10.6,69,1.10,0.0,1028.07,270.0
2018-11-21 22:30,50.6304466666667,-96.98078,17.1,20.3,125,998.51,-10.5,67,1.10,0.0,1027.87,270.0
2018-11-21 22:40,50.6304433333333,-96.9807733333333,16.2,19.1,123,998.53,-10.5,67,1.11,0.0,1027.89,270.0
2018-11-21 22:50,50.6304366666667,-96.9807616666667,16.3,19.0,119,998.43,-10.4,68,1.11,0.0,1027.78,270.0
2018-11-21 23:00,50.6304466666667,-96.9807716666667,16.4,19.0,121,998.41,-10.4,67,1.11,0.0,1027.75,345.5
2018-11-21 23:10,50.6304416666667,-96.980775,15.0,19.0,126,998.43,-10.4,68,1.11,0.0,1027.77,345.5
2018-11-21 23:20,50.6304433333333,-96.9807783333333,15.1,18.2,123,998.45,-10.3,67,1.10,0.0,1027.77,345.5
2018-11-21 23:30,50.6304466666667,-96.9807733333333,15.5,18.2,122,998.43,-10.3,68,1.10,0.0,1027.74,345.5
